• în Republica Moldova
  • Lista ţărilor
  • Pe 7 zile
  • Temperatura apei
  • Hartă satelitară
  • Meteo pe hartă
  • Widget-uri
  • user-avatar
    Intrare

    Meteo pe oră la Adelaide

    Astăzi, 24 Iulie, Luni

    Timp Temperatura Precipitaţii Vânt Presiune Umiditate
    00:00 +11°C° 0 mm 3 m/s 761 mmHg 86%
    01:00 +11°C° 0 mm 3 m/s 761 mmHg 87%
    02:00 +11°C° 0 mm 3 m/s 761 mmHg 88%
    03:00 +10°C° 0 mm 3 m/s 761 mmHg 89%
    04:00 +10°C° 0 mm 3 m/s 761 mmHg 90%
    05:00 +10°C° 0 mm 3 m/s 761 mmHg 91%
    06:00 +10°C° 0 mm 4 m/s 762 mmHg 91%
    07:00 +11°C° 0 mm 4 m/s 762 mmHg 88%
    08:00 +12°C° 0 mm 4 m/s 762 mmHg 84%
    09:00 +13°C° 0 mm 4 m/s 762 mmHg 78%
    10:00 +15°C° 0 mm 4 m/s 762 mmHg 71%
    11:00 +17°C° 0 mm 4 m/s 761 mmHg 64%
    12:00 +17°C° 0 mm 5 m/s 761 mmHg 58%
    13:00 +17°C° 0 mm 5 m/s 760 mmHg 57%
    14:00 +18°C° 0 mm 4 m/s 760 mmHg 56%
    15:00 +19°C° 0 mm 4 m/s 759 mmHg 56%
    16:00 +18°C° 0 mm 4 m/s 760 mmHg 61%
    17:00 +16°C° 0 mm 3 m/s 760 mmHg 65%
    18:00 +15°C° 0 mm 2 m/s 760 mmHg 70%
    19:00 +14°C° 0 mm 3 m/s 760 mmHg 70%
    20:00 +14°C° 0 mm 3 m/s 760 mmHg 70%
    21:00 +13°C° 0 mm 3 m/s 760 mmHg 69%
    22:00 +13°C° 0 mm 3 m/s 759 mmHg 67%
    23:00 +13°C° 0 mm 4 m/s 759 mmHg 66%

    Mâine, 25 Iulie, Marţi

    Timp Temperatura Precipitaţii Vânt Presiune Umiditate
    00:00 +13°C° 0 mm 4 m/s 759 mmHg 64%
    01:00 +13°C° 0 mm 4 m/s 759 mmHg 63%
    02:00 +13°C° 0 mm 4 m/s 758 mmHg 62%
    03:00 +13°C° 0 mm 5 m/s 758 mmHg 61%
    04:00 +13°C° 0 mm 4 m/s 758 mmHg 65%
    05:00 +12°C° 0 mm 4 m/s 758 mmHg 69%
    06:00 +12°C° 0 mm 4 m/s 758 mmHg 73%
    07:00 +13°C° 0 mm 5 m/s 759 mmHg 71%
    08:00 +14°C° 0 mm 6 m/s 759 mmHg 70%
    09:00 +15°C° 0 mm 6 m/s 759 mmHg 68%
    10:00 +16°C° 0 mm 6 m/s 759 mmHg 68%
    11:00 +16°C° 0 mm 7 m/s 759 mmHg 68%
    12:00 +17°C° 0 mm 7 m/s 759 mmHg 67%
    13:00 +16°C° 0,1 mm 7 m/s 759 mmHg 68%
    14:00 +16°C° 0,1 mm 6 m/s 759 mmHg 69%
    15:00 +16°C° 0,1 mm 6 m/s 758 mmHg 70%
    16:00 +15°C° 0,1 mm 6 m/s 759 mmHg 73%
    17:00 +14°C° 0,1 mm 6 m/s 759 mmHg 76%
    18:00 +13°C° 0,1 mm 5 m/s 759 mmHg 79%
    19:00 +13°C° 0,1 mm 5 m/s 760 mmHg 80%
    20:00 +13°C° 0,1 mm 5 m/s 760 mmHg 81%
    21:00 +13°C° 0,1 mm 5 m/s 761 mmHg 82%
    22:00 +13°C° 0 mm 5 m/s 761 mmHg 82%
    23:00 +12°C° 0 mm 5 m/s 761 mmHg 82%

    Poimâine, 26 Iulie, Miercuri

    Timp Temperatura Precipitaţii Vânt Presiune Umiditate
    00:00 +12°C° 0 mm 5 m/s 761 mmHg 82%
    01:00 +12°C° 0 mm 5 m/s 761 mmHg 82%
    02:00 +12°C° 0 mm 5 m/s 761 mmHg 82%
    03:00 +12°C° 0 mm 5 m/s 761 mmHg 82%
    04:00 +12°C° 0 mm 5 m/s 761 mmHg 82%
    05:00 +12°C° 0 mm 5 m/s 762 mmHg 82%
    06:00 +11°C° 0 mm 4 m/s 762 mmHg 82%
    07:00 +12°C° 0 mm 4 m/s 763 mmHg 78%
    08:00 +13°C° 0 mm 5 m/s 763 mmHg 74%
    09:00 +14°C° 0 mm 5 m/s 764 mmHg 70%
    10:00 +15°C° 0 mm 4 m/s 764 mmHg 66%
    11:00 +15°C° 0 mm 4 m/s 763 mmHg 62%
    12:00 +17°C° 0 mm 4 m/s 763 mmHg 58%
    13:00 +17°C° 0 mm 3 m/s 763 mmHg 58%
    14:00 +17°C° 0 mm 3 m/s 763 mmHg 58%
    15:00 +17°C° 0 mm 2 m/s 763 mmHg 58%
    16:00 +15°C° 0 mm 2 m/s 763 mmHg 63%
    17:00 +14°C° 0 mm 1 m/s 763 mmHg 68%
    18:00 +12°C° 0 mm 1 m/s 763 mmHg 73%
    19:00 +12°C° 0 mm 1 m/s 764 mmHg 75%
    20:00 +12°C° 0 mm 1 m/s 764 mmHg 77%
    21:00 +10°C° 0 mm 2 m/s 764 mmHg 78%
    22:00 +10°C° 0 mm 2 m/s 764 mmHg 80%
    23:00 +10°C° 0 mm 3 m/s 763 mmHg 81%

    27 Iulie, Joi

    Timp Temperatura Precipitaţii Vânt Presiune Umiditate
    00:00 +10°C° 0 mm 3 m/s 763 mmHg 82%
    01:00 +10°C° 0 mm 3 m/s 763 mmHg 82%
    02:00 +10°C° 0 mm 4 m/s 762 mmHg 81%
    03:00 +10°C° 0 mm 4 m/s 762 mmHg 80%
    04:00 +10°C° 0 mm 4 m/s 761 mmHg 76%
    05:00 +10°C° 0 mm 5 m/s 761 mmHg 73%
    06:00 +10°C° 0 mm 5 m/s 760 mmHg 69%
    07:00 +12°C° 0,2 mm 5 m/s 760 mmHg 69%
    08:00 +11°C° 0,2 mm 6 m/s 760 mmHg 69%
    09:00 +11°C° 0,2 mm 6 m/s 760 mmHg 69%
    10:00 +14°C° 0 mm 7 m/s 759 mmHg 64%
    11:00 +16°C° 0 mm 8 m/s 758 mmHg 59%
    12:00 +18°C° 0 mm 8 m/s 757 mmHg 55%
    13:00 +20°C° 0,1 mm 8 m/s 756 mmHg 53%
    14:00 +20°C° 0,1 mm 8 m/s 756 mmHg 52%
    15:00 +21°C° 0,1 mm 7 m/s 755 mmHg 51%
    16:00 +18°C° 0,1 mm 7 m/s 756 mmHg 60%
    17:00 +17°C° 0,1 mm 7 m/s 756 mmHg 69%
    18:00 +16°C° 0,1 mm 6 m/s 757 mmHg 78%
    19:00 +15°C° 0 mm 6 m/s 758 mmHg 79%
    20:00 +15°C° 0 mm 6 m/s 759 mmHg 81%
    21:00 +14°C° 0 mm 6 m/s 760 mmHg 82%
    22:00 +13°C° 0 mm 5 m/s 760 mmHg 82%
    23:00 +12°C° 0 mm 4 m/s 760 mmHg 82%

    28 Iulie, Vineri

    Timp Temperatura Precipitaţii Vânt Presiune Umiditate
    00:00 +12°C° 0 mm 3 m/s 760 mmHg 81%
    01:00 +11°C° 0 mm 3 m/s 760 mmHg 82%
    02:00 +12°C° 0 mm 2 m/s 759 mmHg 82%
    03:00 +12°C° 0 mm 2 m/s 759 mmHg 82%
    04:00 +10°C° 0 mm 2 m/s 759 mmHg 83%
    05:00 +10°C° 0 mm 2 m/s 759 mmHg 84%
    06:00 +10°C° 0 mm 2 m/s 760 mmHg 85%
    07:00 +11°C° 0 mm 3 m/s 760 mmHg 81%
    08:00 +12°C° 0 mm 4 m/s 760 mmHg 77%
    09:00 +13°C° 0 mm 5 m/s 760 mmHg 73%
    10:00 +15°C° 0 mm 5 m/s 759 mmHg 68%
    11:00 +17°C° 0 mm 5 m/s 758 mmHg 62%
    12:00 +19°C° 0 mm 6 m/s 757 mmHg 56%
    13:00 +20°C° 0 mm 6 m/s 756 mmHg 54%
    14:00 +21°C° 0 mm 6 m/s 755 mmHg 52%
    15:00 +22°C° 0 mm 6 m/s 754 mmHg 50%
    16:00 +21°C° 0 mm 6 m/s 754 mmHg 46%
    17:00 +21°C° 0 mm 7 m/s 753 mmHg 42%
    18:00 +20°C° 0 mm 7 m/s 753 mmHg 38%
    19:00 +21°C° 0 mm 7 m/s 753 mmHg 36%
    20:00 +21°C° 0 mm 8 m/s 753 mmHg 33%
    21:00 +21°C° 0 mm 8 m/s 752 mmHg 30%
    22:00 +21°C° 0 mm 9 m/s 752 mmHg 30%
    23:00 +21°C° 0 mm 9 m/s 752 mmHg 30%

    29 Iulie, Sâmbătă

    Timp Temperatura Precipitaţii Vânt Presiune Umiditate
    00:00 +21°C° 0 mm 9 m/s 751 mmHg 31%
    01:00 +20°C° 0 mm 8 m/s 751 mmHg 33%
    02:00 +20°C° 0 mm 7 m/s 751 mmHg 36%
    03:00 +19°C° 0 mm 6 m/s 751 mmHg 39%
    04:00 +17°C° 0 mm 6 m/s 751 mmHg 43%
    05:00 +16°C° 0 mm 5 m/s 751 mmHg 47%
    06:00 +16°C° 0 mm 5 m/s 751 mmHg 51%
    07:00 +16°C° 0 mm 6 m/s 751 mmHg 54%
    08:00 +17°C° 0 mm 6 m/s 751 mmHg 57%
    09:00 +17°C° 0 mm 6 m/s 752 mmHg 59%
    10:00 +18°C° 0,3 mm 8 m/s 751 mmHg 59%
    11:00 +18°C° 0,3 mm 9 m/s 751 mmHg 58%
    12:00 +19°C° 0,3 mm 10 m/s 751 mmHg 58%
    13:00 +17°C° 0,9 mm 10 m/s 751 mmHg 66%
    14:00 +16°C° 0,9 mm 10 m/s 750 mmHg 74%
    15:00 +15°C° 0,9 mm 9 m/s 750 mmHg 82%
    16:00 +13°C° 1,3 mm 9 m/s 751 mmHg 82%
    17:00 +12°C° 1,3 mm 9 m/s 752 mmHg 81%
    18:00 +12°C° 1,3 mm 8 m/s 753 mmHg 81%
    19:00 +11°C° 1 mm 8 m/s 753 mmHg 80%
    20:00 +11°C° 1 mm 8 m/s 753 mmHg 79%
    21:00 +11°C° 1 mm 8 m/s 754 mmHg 78%
    22:00 +10°C° 0,4 mm 8 m/s 754 mmHg 79%
    23:00 +10°C° 0,4 mm 8 m/s 754 mmHg 79%
    Arată mai mult